sat.trackr.live / text

‹ back to catalog

STARLINK-32150

NORAD 60294 · 2024-132S

PAYLOAD ACTIVE UNKNOWN

§ Identity

Operator
Country
US
Launch date
2024-07-28
Launch site
AFETR
Launch vehicle
Mass (kg)
RCS (m²)

Purposes: comms

External: N2YO · Heavens-Above · Gunter

§ Orbital elements

Epoch: 2026-09-21T07:04:41.443968Z

Period
94.01 min
Inclination
53.1589°
Eccentricity
0.0001116
Mean motion
15.31713596 rev/d
Perigee alt
469.9 km
Apogee alt
471.5 km
Semi-major
6,848.8 km
B*
-1.1253e-4
RAAN
222.7874°
Arg perigee
94.1466°
Mean anomaly
265.9663°
Rev number
12,152

§ Raw data

STARLINK-321501 60294U 24132S   26264.29492412 -.00003857  00000+0 -11253-3 0  99952 60294  53.1589 222.7874 0001116  94.1466 265.9663 15.31713596121524

JSON: /api/v1/satellites/60294 · /tle

For live sub-satellite position, see the globe view (requires WebGL).

§ Visibility from observer

Set your observer location to see the next 7 days of passes ≥ 10°. The values pass through the URL so the page stays shareable.

No JS? Fill the form by hand. The geolocation button needs JavaScript.